[[{"header":{"parameterUnit":"m.s-1","parameterCategory":1,"la1":30.2991,"la2":30.254,"lo1":-89.0895,"lo2":-89.0444,"dy":0.0017,"dx":0.0017,"nx":28,"ny":28,"refTime":"2025-06-21T21:00:00:Z","depth":0,"parameterNumber":2,"parameterNumberName":"U-component_of_WINDS"},"data":[0,0,0,0,0,0,0,0,0,0,0,0,0,0,0,0,0,0,0,0,0,0,0,0,0,0,0,0,0,0,0,0,0,0,0,0,0,0,0,0,0,0,0,0,0,0,0,0,0,0,0,0,0,0,0,0,0,0,0.3947,0.3947,0,0.397,0.3971,0.3971,0.3995,0.3995,0.3995,0.3996,0.4022,0.4022,0.4022,0,0,0,0,0,0,0,0,0,0,0,0,0,0.3923,0.3923,0.3947,0.3947,0.3947,0.397,0.3971,0.3971,0.3995,0.3995,0.3995,0.3996,0.4021,0.4022,0.4022,0,0,0,0,0,0,0,0,0,0,0,0,0,0.3938,0.3923,0.3946,0.3962,0.3963,0.397,0.3971,0.3971,0.3995,0.3995,0.3996,0.3996,0.4021,0.4022,0.4022,0.4017,0,0,0.4024,0.4024,0,0,0,0,0,0,0,0,0.3938,0.3939,0.3959,0.3961,0.3962,0.398,0.3972,0.3986,0.3995,0.3983,0.3996,0.3996,0.4007,0.4009,0.4013,0.4018,0.4019,0.4024,0.4025,0.4025,0.4025,0,0,0,0,0,0,0,0.3936,0.3938,0.3956,0.3959,0.3961,0.3968,0.397,0.3975,0.3992,0.3984,0.3986,0.3988,0.4008,0.4012,0.4013,0.4019,0.4024,0.4025,0.4025,0.4025,0.4022,0.4021,0,0,0,0,0,0,0.3933,0.3937,0.3955,0.3957,0.3951,0.3968,0.3971,0.3974,0.3992,0.3995,0.3988,0.3989,0.4011,0.4013,0.4014,0.401,0.4025,0.4025,0.4026,0.4022,0.4022,0.4021,0,0,0,0,0,0,0.3932,0.3934,0.3954,0.3948,0.3951,0.3968,0.3971,0.3974,0.3978,0.3995,0.3998,0.3988,0.4011,0.4014,0.4016,0.4011,0.4026,0.4026,0.4023,0.4022,0.4021,0.4,0,0,0,0,0,0,0.3931,0.3934,0.3932,0.3947,0.3951,0.3955,0.3971,0.3974,0.3979,0.3981,0.3996,0.3999,0.4012,0.4015,0.4017,0.4012,0.4027,0.4023,0.4022,0.4022,0.4001,0.3998,0.3996,0,0,0,0,0,0.393,0.3925,0.3931,0.3933,0.3948,0.3955,0.3957,0.3971,0.3978,0.3976,0.3987,0.3999,0.4011,0.4015,0.4017,0.4013,0.4024,0.4023,0.4022,0.4002,0.3999,0.3996,0,0,0,0,0,0,0.3908,0.3927,0.3935,0.3934,0.3942,0.3959,0.3957,0.3967,0.3974,0.3976,0.3993,0.3996,0.3997,0.4005,0.4009,0.4008,0.4019,0.4018,0.4003,0.4,0.3998,0.3997,0.4027,0,0,0,0,0,0.3903,0.3907,0.3923,0.392,0.3924,0.394,0.3943,0.3953,0.3963,0.3967,0.3978,0.3988,0.3994,0.3997,0.4004,0.4002,0.4006,0.4,0.3997,0.3995,0.3995,0.3995,0.3993,0.4018,0.4018,0.4018,0,0,0.3893,0.3904,0.3905,0.3916,0.3924,0.3928,0.3943,0.3946,0.3949,0.3967,0.3971,0.3979,0.3991,0.3991,0.3992,0.3998,0.3988,0.3994,0.3992,0.3993,0.3994,0.3991,0.3989,0.4017,0.4017,0.4017,0,0,0.3877,0.3884,0.3884,0.3891,0.3903,0.3913,0.3913,0.3927,0.3934,0.3937,0.3951,0.3955,0.3965,0.3973,0.3978,0.3964,0.3975,0.3965,0.3953,0.3953,0.3951,0.395,0.3946,0.3944,0.3965,0.3965,0.3965,0,0.3863,0.3868,0.3882,0.3884,0.3889,0.3905,0.3905,0.3912,0.3925,0.3928,0.3934,0.3947,0.3956,0.3959,0.3955,0.3959,0.396,0.3964,0.395,0.3949,0.3948,0.3944,0.3942,0.3964,0.3964,0.3964,0.3964,0,0.3851,0.3854,0.3852,0.3864,0.3869,0.387,0.3884,0.3887,0.3896,0.3906,0.3909,0.392,0.393,0.3931,0.394,0.3935,0.3938,0.3947,0.3958,0.3944,0.3941,0.3939,0.3962,0.3962,0.3963,0.3963,0,0,0.3822,0.3841,0.3841,0.3846,0.386,0.3863,0.3865,0.3873,0.3876,0.3884,0.3887,0.3894,0.3902,0.3909,0.3919,0.3919,0.3908,0.3927,0.3928,0.3924,0.3904,0.3898,0.3896,0.3915,0.3914,0.3914,0.3903,0,0.3809,0.3813,0.3825,0.3825,0.3829,0.3844,0.3846,0.3855,0.3863,0.3868,0.3878,0.3884,0.3894,0.3897,0.3898,0.3909,0.3904,0.391,0.3918,0.3918,0.3916,0.3894,0.3888,0.3877,0.3902,0.3902,0.3902,0,0.3794,0.3801,0.3802,0.3815,0.3817,0.3818,0.3828,0.3832,0.3842,0.3848,0.3855,0.3866,0.3869,0.3879,0.3884,0.3887,0.3891,0.3897,0.3897,0.3899,0.391,0.3897,0.3874,0.3873,0.39,0.39,0.39,0,0.3775,0.3784,0.3786,0.379,0.3806,0.3806,0.3813,0.3824,0.3828,0.3836,0.3839,0.3847,0.3852,0.3858,0.3871,0.3877,0.3875,0.3886,0.3881,0.3881,0.3881,0.3881,0.386,0.3882,0.3882,0.3882,0.3882,0,0.3759,0.3759,0.3777,0.3778,0.3779,0.3793,0.3793,0.3801,0.381,0.3814,0.3827,0.383,0.3847,0.3852,0.3862,0.3865,0.3867,0.3873,0.3876,0.3873,0.3872,0.3876,0.3878,0.3881,0.3882,0.3882,0.3882,0,0.3738,0.375,0.3753,0.3767,0.3771,0.377,0.3783,0.3785,0.3794,0.3798,0.38,0.3815,0.3822,0.3835,0.3845,0.3852,0.3853,0.3858,0.385,0.3852,0.3847,0.3848,0.3829,0.3827,0.3849,0.3849,0.3849,0,0.3728,0.3728,0.3742,0.3745,0.3751,0.3756,0.376,0.3774,0.3778,0.379,0.379,0.3798,0.3805,0.3815,0.3827,0.3835,0.3841,0.3833,0.3842,0.3839,0.3842,0.3842,0.3842,0.3832,0.3831,0.3831,0.3831,0,0.3709,0.3715,0.372,0.3728,0.3733,0.3739,0.3747,0.3749,0.3764,0.3768,0.3775,0.378,0.3791,0.3798,0.3808,0.3816,0.3826,0.3828,0.3827,0.3824,0.382,0.3823,0.3846,0.3828,0.3829,0.3829,0.3829,0.3829,0.3694,0.3695,0.3705,0.3711,0.3718,0.3724,0.3727,0.3736,0.3742,0.3751,0.3759,0.3765,0.3776,0.379,0.3797,0.3802,0.3807,0.3806,0.3807,0.3806,0.3805,0.3818,0.3804,0.3804,0.3804,0.3804,0.3804,0,0.3676,0.3684,0.3689,0.3699,0.3703,0.3712,0.3721,0.3724,0.3729,0.3738,0.3744,0.3752,0.3759,0.3772,0.378,0.3782,0.3787,0.3784,0.3785,0.3786,0.38,0.38,0.378,0.378,0.378,0.378,0.378,0.378,0.3668,0.3671,0.3678,0.3684,0.3691,0.3697,0.3701,0.3708,0.3715,0.3723,0.3729,0.3736,0.3747,0.3756,0.3763,0.3767,0.377,0.3765,0.3771,0.3783,0.3785,0.3788,0.3788,0.3766,0.3766,0.3757,0.3757,0.3757]},{"header":{"parameterUnit":"m.s-1","parameterCategory":1,"la1":30.2991,"la2":30.254,"lo1":-89.0895,"lo2":-89.0444,"dy":0.0017,"dx":0.0017,"nx":28,"ny":28,"refTime":"2025-06-21T21:00:00:Z","depth":0,"parameterNumber":3,"parameterNumberName":"V-component_of_WINDS"},"data":[0,0,0,0,0,0,0,0,0,0,0,0,0,0,0,0,0,0,0,0,0,0,0,0,0,0,0,0,0,0,0,0,0,0,0,0,0,0,0,0,0,0,0,0,0,0,0,0,0,0,0,0,0,0,0,0,0,0,0.1759,0.1759,0,0.172,0.172,0.1719,0.1714,0.1715,0.1715,0.1715,0.1674,0.1672,0.1671,0,0,0,0,0,0,0,0,0,0,0,0,0,0.1827,0.1826,0.1759,0.1759,0.1758,0.172,0.172,0.1719,0.1714,0.1715,0.1715,0.1716,0.1674,0.1673,0.1671,0,0,0,0,0,0,0,0,0,0,0,0,0,0.1794,0.1825,0.1759,0.1751,0.175,0.172,0.172,0.1719,0.1714,0.1715,0.1715,0.1716,0.1675,0.1673,0.1671,0.1646,0,0,0.1664,0.1663,0,0,0,0,0,0,0,0,0.1796,0.1791,0.1753,0.1752,0.175,0.1723,0.1728,0.1694,0.1714,0.1728,0.1716,0.1716,0.169,0.1686,0.1678,0.1644,0.1642,0.1664,0.1662,0.1661,0.1661,0,0,0,0,0,0,0,0.1798,0.1793,0.1744,0.1752,0.1751,0.1749,0.1745,0.1722,0.1706,0.1727,0.1726,0.1722,0.1689,0.168,0.1677,0.1641,0.1664,0.1662,0.166,0.166,0.1584,0.1583,0,0,0,0,0,0,0.1802,0.1795,0.1745,0.1742,0.1775,0.1747,0.1743,0.1731,0.1706,0.1703,0.1721,0.1722,0.1683,0.1679,0.1675,0.1644,0.1661,0.1659,0.1658,0.1585,0.1584,0.1583,0,0,0,0,0,0,0.1803,0.1798,0.1746,0.1768,0.1762,0.1745,0.1732,0.173,0.1721,0.1702,0.1699,0.1715,0.1683,0.1678,0.1653,0.1642,0.1658,0.1656,0.1585,0.1584,0.1583,0.1581,0,0,0,0,0,0,0.1805,0.1798,0.1789,0.1768,0.1761,0.1726,0.1732,0.1729,0.1717,0.1717,0.1695,0.1692,0.1684,0.1656,0.1651,0.1639,0.1655,0.1586,0.1585,0.1584,0.1582,0.158,0.1578,0,0,0,0,0,0.1808,0.179,0.1789,0.1783,0.1749,0.1725,0.172,0.1711,0.1716,0.1707,0.1694,0.1693,0.1644,0.1654,0.1647,0.1635,0.1587,0.1585,0.1584,0.1583,0.158,0.1578,0,0,0,0,0,0,0.1809,0.1787,0.1785,0.176,0.1744,0.1724,0.1712,0.1709,0.1692,0.1692,0.1681,0.1676,0.1651,0.1641,0.1652,0.1609,0.1616,0.1613,0.1617,0.1615,0.1613,0.1616,0.1653,0,0,0,0,0,0.1806,0.1789,0.1771,0.175,0.1742,0.1728,0.1717,0.1712,0.1695,0.1688,0.1674,0.1658,0.1638,0.1626,0.1607,0.158,0.1575,0.1569,0.1567,0.1566,0.1563,0.1547,0.1544,0.1578,0.1578,0.1578,0,0,0.18,0.1786,0.1776,0.175,0.1737,0.1719,0.1723,0.1704,0.169,0.1685,0.166,0.165,0.163,0.1604,0.1591,0.1594,0.1552,0.1564,0.1563,0.1561,0.1545,0.1542,0.1539,0.1577,0.1577,0.1577,0,0,0.178,0.1768,0.175,0.1737,0.1718,0.1708,0.1704,0.1684,0.1677,0.1652,0.1648,0.1631,0.1598,0.1584,0.1573,0.1547,0.1545,0.1542,0.1532,0.1516,0.1514,0.1511,0.1501,0.1498,0.1539,0.1539,0.1539,0,0.1776,0.1749,0.174,0.1721,0.1709,0.1705,0.1685,0.1673,0.1648,0.164,0.1643,0.1602,0.1589,0.1559,0.1552,0.1543,0.1537,0.1544,0.1515,0.1512,0.151,0.15,0.1497,0.1539,0.1539,0.1539,0.1539,0,0.1743,0.1724,0.1711,0.1688,0.1675,0.1656,0.1643,0.1631,0.1626,0.1616,0.1591,0.1574,0.1552,0.1545,0.154,0.1514,0.1516,0.1517,0.1524,0.1507,0.1497,0.1494,0.1538,0.1539,0.1539,0.1539,0,0,0.1723,0.1695,0.169,0.168,0.1658,0.1643,0.1623,0.1602,0.1591,0.1574,0.1556,0.1529,0.153,0.1517,0.1511,0.1497,0.1477,0.15,0.1499,0.1496,0.1446,0.1445,0.1441,0.1475,0.1475,0.1474,0.1448,0,0.17,0.1665,0.1656,0.1626,0.1608,0.1604,0.1586,0.157,0.1561,0.1544,0.1532,0.1513,0.1516,0.1508,0.1495,0.1482,0.1467,0.1484,0.1458,0.1457,0.1463,0.1436,0.1435,0.1411,0.1444,0.1443,0.1443,0,0.1669,0.1651,0.162,0.16,0.1592,0.1577,0.1556,0.154,0.1522,0.1515,0.1501,0.1496,0.1474,0.1482,0.1451,0.1463,0.1452,0.1444,0.1443,0.144,0.1449,0.1432,0.1403,0.1399,0.1437,0.1438,0.1438,0,0.1656,0.1625,0.1602,0.1593,0.1569,0.1558,0.1548,0.153,0.1518,0.15,0.1491,0.1471,0.1459,0.1443,0.1432,0.1439,0.1402,0.1409,0.1396,0.1396,0.1388,0.1388,0.1356,0.1381,0.1381,0.1382,0.1382,0,0.1631,0.1612,0.1596,0.1582,0.1559,0.1549,0.1527,0.1517,0.1501,0.1484,0.1478,0.1462,0.1449,0.1431,0.1422,0.1398,0.1393,0.1386,0.1384,0.1387,0.1387,0.1379,0.138,0.1381,0.1381,0.1381,0.1381,0,0.1614,0.1602,0.1577,0.1556,0.1551,0.1535,0.1518,0.1503,0.1493,0.1471,0.1466,0.145,0.1428,0.1416,0.1388,0.1382,0.1355,0.1354,0.1361,0.136,0.1347,0.1348,0.1308,0.1302,0.1332,0.1331,0.1331,0,0.1598,0.1583,0.1561,0.155,0.1539,0.1521,0.1508,0.1497,0.1484,0.1462,0.145,0.1428,0.141,0.1376,0.1361,0.134,0.1338,0.1325,0.1335,0.1337,0.1337,0.1338,0.1336,0.1323,0.1323,0.1323,0.1323,0,0.1572,0.1567,0.1549,0.1529,0.1515,0.1498,0.1482,0.1473,0.1459,0.1444,0.1422,0.1408,0.1381,0.1359,0.1336,0.1325,0.1321,0.132,0.1316,0.1318,0.1322,0.1319,0.1356,0.1321,0.1321,0.1321,0.1321,0.1321,0.1555,0.1541,0.1523,0.1504,0.149,0.1475,0.146,0.1448,0.143,0.1407,0.1402,0.1378,0.136,0.1329,0.1317,0.1298,0.13,0.1294,0.1293,0.1291,0.129,0.1326,0.1294,0.1294,0.1294,0.1294,0.1294,0,0.1528,0.1516,0.1498,0.1476,0.146,0.1459,0.144,0.1427,0.1407,0.139,0.1372,0.1347,0.1325,0.1309,0.1287,0.1275,0.1273,0.1269,0.127,0.1267,0.129,0.1296,0.1272,0.1272,0.1272,0.1272,0.1272,0.1272,0.1512,0.1488,0.1481,0.1451,0.1439,0.1416,0.1406,0.1392,0.1378,0.135,0.1332,0.1322,0.1305,0.1282,0.1262,0.1258,0.1249,0.1246,0.1242,0.1263,0.1266,0.1268,0.1273,0.1245,0.1245,0.122,0.122,0.122]}]]